When you browse on this site, cookies collect data to enhance your experience and personalize the content and advertising you see.
Visit our Privacy Policy to learn more. By continuing to use the site, you agree to this use of cookies and data.
  • en Suisse
  • Liste des pays
  • À 7 jours
  • Température de l'eau
  • Carte météo
  • Widgets météo
  • user-avatar
    Se connecter

    Météo par heure à Dorchester

    Ce jour, 23 Septembre, Lundi

    Heure Température Précipitation Vent Pression Humidité
    00:00 +12°C° 0 mm 3 m/s 750 mmHg 96%
    01:00 +12°C° 0 mm 3 m/s 751 mmHg 96%
    02:00 +12°C° 0 mm 4 m/s 751 mmHg 96%
    03:00 +12°C° 0 mm 4 m/s 751 mmHg 96%
    04:00 +12°C° 0 mm 4 m/s 751 mmHg 95%
    05:00 +12°C° 0 mm 4 m/s 752 mmHg 94%
    06:00 +12°C° 0 mm 3 m/s 753 mmHg 94%
    07:00 +13°C° 0 mm 3 m/s 753 mmHg 88%
    08:00 +14°C° 0 mm 4 m/s 753 mmHg 81%
    09:00 +15°C° 0 mm 4 m/s 753 mmHg 75%
    10:00 +16°C° 0 mm 5 m/s 753 mmHg 71%
    11:00 +17°C° 0 mm 6 m/s 753 mmHg 67%
    12:00 +19°C° 0 mm 6 m/s 753 mmHg 63%
    13:00 +18°C° 0.1 mm 7 m/s 753 mmHg 65%
    14:00 +18°C° 0.1 mm 7 m/s 753 mmHg 66%
    15:00 +18°C° 0.1 mm 7 m/s 752 mmHg 68%
    16:00 +17°C° 0.8 mm 7 m/s 752 mmHg 76%
    17:00 +16°C° 0.8 mm 7 m/s 752 mmHg 84%
    18:00 +15°C° 0.8 mm 6 m/s 751 mmHg 92%
    19:00 +15°C° 0.2 mm 6 m/s 751 mmHg 93%
    20:00 +15°C° 0.2 mm 6 m/s 751 mmHg 93%
    21:00 +15°C° 0.2 mm 6 m/s 751 mmHg 93%
    22:00 +16°C° 0.2 mm 5 m/s 751 mmHg 93%
    23:00 +16°C° 0.2 mm 5 m/s 750 mmHg 93%

    Demain, 24 Septembre, Mardi

    Heure Température Précipitation Vent Pression Humidité
    00:00 +18°C° 0.2 mm 4 m/s 750 mmHg 93%
    01:00 +18°C° 0.2 mm 4 m/s 750 mmHg 94%
    02:00 +18°C° 0.2 mm 4 m/s 749 mmHg 94%
    03:00 +18°C° 0.2 mm 4 m/s 748 mmHg 95%
    04:00 +16°C° 1.6 mm 5 m/s 748 mmHg 95%
    05:00 +16°C° 1.6 mm 6 m/s 747 mmHg 94%
    06:00 +16°C° 1.6 mm 6 m/s 746 mmHg 94%
    07:00 +16°C° 4.9 mm 6 m/s 746 mmHg 95%
    08:00 +16°C° 4.9 mm 6 m/s 746 mmHg 95%
    09:00 +16°C° 4.9 mm 5 m/s 745 mmHg 95%
    10:00 +16°C° 1.9 mm 5 m/s 745 mmHg 91%
    11:00 +17°C° 1.9 mm 5 m/s 745 mmHg 87%
    12:00 +17°C° 1.9 mm 5 m/s 745 mmHg 83%
    13:00 +19°C° 0.3 mm 6 m/s 745 mmHg 79%
    14:00 +19°C° 0.3 mm 6 m/s 745 mmHg 75%
    15:00 +18°C° 0.3 mm 7 m/s 745 mmHg 71%
    16:00 +17°C° 0 mm 6 m/s 745 mmHg 75%
    17:00 +16°C° 0 mm 5 m/s 745 mmHg 79%
    18:00 +14°C° 0 mm 4 m/s 746 mmHg 83%
    19:00 +14°C° 0.1 mm 5 m/s 746 mmHg 84%
    20:00 +14°C° 0.1 mm 5 m/s 746 mmHg 86%
    21:00 +14°C° 0.1 mm 5 m/s 746 mmHg 88%
    22:00 +14°C° 0.6 mm 5 m/s 746 mmHg 90%
    23:00 +14°C° 0.6 mm 6 m/s 745 mmHg 91%

    Après-demain, 25 Septembre, Mercredi

    Heure Température Précipitation Vent Pression Humidité
    00:00 +14°C° 0.6 mm 6 m/s 745 mmHg 93%
    01:00 +14°C° 0.2 mm 6 m/s 744 mmHg 93%
    02:00 +14°C° 0.2 mm 5 m/s 744 mmHg 92%
    03:00 +14°C° 0.2 mm 5 m/s 743 mmHg 92%
    04:00 +14°C° 0.5 mm 5 m/s 743 mmHg 93%
    05:00 +14°C° 0.5 mm 5 m/s 743 mmHg 94%
    06:00 +14°C° 0.5 mm 5 m/s 743 mmHg 95%
    07:00 +14°C° 0.3 mm 5 m/s 743 mmHg 93%
    08:00 +15°C° 0.3 mm 5 m/s 744 mmHg 91%
    09:00 +16°C° 0.3 mm 5 m/s 744 mmHg 90%
    10:00 +16°C° 0.4 mm 5 m/s 745 mmHg 88%
    11:00 +16°C° 0.4 mm 5 m/s 745 mmHg 86%
    12:00 +17°C° 0.4 mm 5 m/s 746 mmHg 85%
    13:00 +17°C° 0.3 mm 5 m/s 746 mmHg 84%
    14:00 +17°C° 0.3 mm 5 m/s 746 mmHg 83%
    15:00 +17°C° 0.3 mm 5 m/s 747 mmHg 82%
    16:00 +16°C° 0.1 mm 5 m/s 747 mmHg 84%
    17:00 +16°C° 0.1 mm 5 m/s 747 mmHg 86%
    18:00 +15°C° 0.1 mm 4 m/s 748 mmHg 89%
    19:00 +14°C° 0 mm 4 m/s 748 mmHg 90%
    20:00 +14°C° 0 mm 3 m/s 748 mmHg 92%
    21:00 +13°C° 0 mm 3 m/s 748 mmHg 94%
    22:00 +14°C° 0 mm 3 m/s 748 mmHg 95%
    23:00 +14°C° 0 mm 3 m/s 748 mmHg 95%

    26 Septembre, Jeudi

    Heure Température Précipitation Vent Pression Humidité
    00:00 +14°C° 0 mm 4 m/s 748 mmHg 96%
    01:00 +15°C° 0.3 mm 4 m/s 748 mmHg 95%
    02:00 +15°C° 0.3 mm 5 m/s 748 mmHg 95%
    03:00 +16°C° 0.3 mm 5 m/s 748 mmHg 95%
    04:00 +16°C° 0.5 mm 5 m/s 748 mmHg 94%
    05:00 +16°C° 0.5 mm 6 m/s 748 mmHg 94%
    06:00 +16°C° 0.5 mm 6 m/s 748 mmHg 93%
    07:00 +16°C° 0.2 mm 6 m/s 748 mmHg 92%
    08:00 +16°C° 0.2 mm 6 m/s 749 mmHg 90%
    09:00 +17°C° 0.2 mm 6 m/s 749 mmHg 89%
    10:00 +16°C° 0.5 mm 6 m/s 749 mmHg 86%
    11:00 +16°C° 0.5 mm 5 m/s 749 mmHg 83%
    12:00 +16°C° 0.5 mm 5 m/s 749 mmHg 80%
    13:00 +16°C° 0 mm 5 m/s 749 mmHg 76%
    14:00 +17°C° 0 mm 5 m/s 749 mmHg 71%
    15:00 +17°C° 0 mm 6 m/s 749 mmHg 67%
    16:00 +16°C° 0.1 mm 5 m/s 750 mmHg 71%
    17:00 +15°C° 0.1 mm 5 m/s 750 mmHg 76%
    18:00 +14°C° 0.1 mm 4 m/s 750 mmHg 80%
    19:00 +13°C° 0 mm 4 m/s 750 mmHg 83%
    20:00 +13°C° 0 mm 4 m/s 751 mmHg 85%
    21:00 +12°C° 0 mm 4 m/s 751 mmHg 88%
    22:00 +12°C° 0 mm 4 m/s 751 mmHg 88%
    23:00 +10°C° 0 mm 5 m/s 751 mmHg 88%

    27 Septembre, Vendredi

    Heure Température Précipitation Vent Pression Humidité
    00:00 +10°C° 0 mm 5 m/s 751 mmHg 89%
    01:00 +10°C° 0 mm 5 m/s 751 mmHg 89%
    02:00 +11°C° 0 mm 4 m/s 751 mmHg 90%
    03:00 +11°C° 0 mm 4 m/s 751 mmHg 90%
    04:00 +11°C° 0 mm 4 m/s 750 mmHg 90%
    05:00 +10°C° 0 mm 5 m/s 750 mmHg 90%
    06:00 +10°C° 0 mm 5 m/s 750 mmHg 90%
    07:00 +11°C° 0 mm 6 m/s 750 mmHg 86%
    08:00 +12°C° 0 mm 7 m/s 750 mmHg 82%
    09:00 +14°C° 0 mm 7 m/s 750 mmHg 78%
    10:00 +15°C° 0.2 mm 8 m/s 750 mmHg 76%
    11:00 +16°C° 0.2 mm 8 m/s 750 mmHg 74%
    12:00 +16°C° 0.2 mm 9 m/s 750 mmHg 72%
    13:00 +16°C° 0.2 mm 8 m/s 750 mmHg 73%
    14:00 +16°C° 0.2 mm 8 m/s 750 mmHg 73%
    15:00 +15°C° 0.2 mm 8 m/s 750 mmHg 74%
    16:00 +15°C° 0.1 mm 7 m/s 750 mmHg 77%
    17:00 +14°C° 0.1 mm 6 m/s 750 mmHg 80%
    18:00 +13°C° 0.1 mm 6 m/s 750 mmHg 83%
    19:00 +13°C° 0 mm 6 m/s 750 mmHg 83%
    20:00 +11°C° 0 mm 6 m/s 750 mmHg 84%
    21:00 +11°C° 0 mm 6 m/s 750 mmHg 85%
    22:00 +11°C° 0 mm 6 m/s 750 mmHg 85%
    23:00 +11°C° 0 mm 7 m/s 750 mmHg 85%

    28 Septembre, Samedi

    Heure Température Précipitation Vent Pression Humidité
    00:00 +10°C° 0 mm 7 m/s 750 mmHg 86%
    01:00 +10°C° 0.1 mm 7 m/s 750 mmHg 86%
    02:00 +10°C° 0.1 mm 7 m/s 750 mmHg 87%
    03:00 +10°C° 0.1 mm 6 m/s 750 mmHg 88%
    04:00 +10°C° 0 mm 6 m/s 750 mmHg 88%
    05:00 +10°C° 0 mm 6 m/s 751 mmHg 88%
    06:00 +10°C° 0 mm 6 m/s 751 mmHg 88%
    07:00 +11°C° 0 mm 7 m/s 751 mmHg 85%
    08:00 +12°C° 0 mm 7 m/s 751 mmHg 81%
    09:00 +13°C° 0 mm 8 m/s 752 mmHg 77%
    10:00 +15°C° 0.1 mm 8 m/s 752 mmHg 74%
    11:00 +15°C° 0.1 mm 8 m/s 752 mmHg 71%
    12:00 +16°C° 0.1 mm 8 m/s 752 mmHg 69%
    13:00 +16°C° 0.1 mm 8 m/s 752 mmHg 72%
    14:00 +15°C° 0.1 mm 8 m/s 752 mmHg 75%
    15:00 +14°C° 0.1 mm 7 m/s 752 mmHg 78%
    16:00 +14°C° 0 mm 7 m/s 752 mmHg 80%
    17:00 +14°C° 0 mm 6 m/s 752 mmHg 82%
    18:00 +13°C° 0 mm 6 m/s 752 mmHg 84%
    19:00 +13°C° 0.1 mm 5 m/s 752 mmHg 84%
    20:00 +13°C° 0.1 mm 5 m/s 752 mmHg 85%
    21:00 +12°C° 0.1 mm 5 m/s 752 mmHg 86%
    22:00 +12°C° 0 mm 5 m/s 752 mmHg 86%
    23:00 +12°C° 0 mm 5 m/s 752 mmHg 87%
    Voir plus